Location: Decatur(IL)
(39.8400°N, 88.9550°W)
Time: 16:42:30
(UTC-05:00)

Cosmos 1953 - Visible Passes

Search period start: 29 July 2016 00:00
Search period end: 08 August 2016 00:00
Orbit: 543 x 560 km, 82.5° (Epoch: 28 July)

Date Brightness Start Highest point End Pass type
(mag) Time Alt. Az. Time Alt. Az. Time Alt. Az.
29 Jul 4.9 02:47:49 12° ESE 02:49:04 14° E 02:51:11 10° NE visible
29 Jul 3.0 04:23:35 27° SW 04:25:07 39° WNW 04:28:57 10° N visible
30 Jul 4.8 02:44:28 15° E 02:45:17 16° E 02:47:44 10° NE visible
30 Jul 3.1 04:20:15 29° WSW 04:21:25 35° WNW 04:25:10 10° N visible
31 Jul 4.6 02:41:06 17° E 02:41:32 17° E 02:44:14 10° NE visible
31 Jul 3.3 04:16:53 28° W 04:17:43 31° WNW 04:21:23 10° NNW visible
01 Aug 4.5 02:37:43 19° E 02:37:46 19° E 02:40:42 10° NE visible
01 Aug 3.4 04:13:30 27° W 04:14:00 28° WNW 04:17:34 10° NNW visible
02 Aug 4.4 02:34:19 21° E 02:34:19 21° E 02:37:07 10° NE visible
02 Aug 3.6 04:10:05 25° W 04:10:19 25° WNW 04:13:44 10° NNW visible
03 Aug 4.4 02:30:53 23° ENE 02:30:53 23° ENE 02:33:32 10° NE visible
03 Aug 3.8 04:06:39 23° WNW 04:06:39 23° WNW 04:09:54 10° NNW visible
04 Aug 4.4 02:27:26 24° ENE 02:27:26 24° ENE 02:29:55 10° NNE visible
04 Aug 4.0 04:03:12 21° WNW 04:03:12 21° WNW 04:06:03 10° NNW visible
05 Aug 4.4 02:23:58 24° ENE 02:23:58 24° ENE 02:26:18 10° NNE visible
05 Aug 4.2 03:59:44 18° WNW 03:59:44 18° WNW 04:02:10 10° NNW visible
06 Aug 4.4 02:20:29 25° NE 02:20:29 25° NE 02:22:39 10° NNE visible
06 Aug 4.4 03:56:15 16° WNW 03:56:15 16° WNW 03:58:15 10° NNW visible
07 Aug 4.5 02:16:59 24° NE 02:16:59 24° NE 02:18:59 10° NNE visible
07 Aug 4.5 03:52:45 15° NW 03:52:45 15° NW 03:54:19 10° NW visible
